レナード彗星

C/2021 G1 ( Leonard )

English version
Home page
Updated on May 26, 2021

---------------------------------------------------------------------

・ プロフィール

発見日 2021年4月11日
発見光度 21.7等
発見者 Gregory J. Leonard (Mt. Lemmon)

・ 軌道要素

Epoch 2021 July 5.0 TT = JDT 2459400.5                                          
T 2021 July 22.22970 TT                                 Rudenko                 
q   3.4236653            (2000.0)            P               Q                  
z  +0.0133307      Peri.  107.48180     -0.63642339     +0.18779561             
 +/-0.0000000      Node   270.69110     -0.01527375     +0.96665087             
e   0.9543602      Incl.  131.56667     +0.77118868     +0.17412327             
From 48 observations 2021 Apr. 11-May 6, mean residual 0".5.                    

・ 光度変化

        m1 = 13.0 + 5 logΔ + 10.0 log r

---------------------------------------------------------------------

軌道要素はM.P.E.C. 2021-J72に掲載されたものです。
光度グラフはComet for Windowsで作成したものです。

---------------------------------------------------------------------

Copyright(C) Seiichi Yoshida (comet@aerith.net). All rights reserved.